Regional Weather Roundup
Issued by NWS

Home | Current Version | Previous Version | Graphics & Text | Print | Product List | Glossary On
Versions: 1 2 3 4 5 6 7 8 9 10 11 12 13 14 15 16 17 18 19 20 21 22 23 24 25 26 27 28 29 30 31 32 33 34 35 36 37 38 39 40 41 42 43 44 45 46 47 48 49 50
000
ASUS43 KFSD 121002
RWRSD

WEATHER ROUNDUP FOR SOUTH DAKOTA
NATIONAL WEATHER SERVICE SIOUX FALLS SD
500 AM CDT SAT JUL 12 2014

NOTE: "FAIR" INDICATES FEW OR NO CLOUDS BELOW 12,000 FEET WITH NO
SIGNIFICANT WEATHER AND/OR OBSTRUCTIONS TO VISIBILITY.


SDZ001>005-009-010-012>017-121100-
NORTHWEST AND NORTH CENTRAL SOUTH DAKOTA

CITY           SKY/WX    TMP DP  RH WIND       PRES   REMARKS
BUFFALO          N/A     61  58  90 NW13      30.09R
FAITH            N/A     63  60  90 N14       30.13R
MOBRIDGE       LGT RAIN  67  58  72 NE8       30.05R
$$

SDZ012>016-024>037-041>051-057-063-072>074-121100-
SOUTHWEST AND SOUTH CENTRAL SOUTH DAKOTA

CITY           SKY/WX    TMP DP  RH WIND       PRES   REMARKS
RAPID CTY ARPT PTCLDY    61  57  87 CALM      30.11R
PIERRE         LGT RAIN  65  62  90 N14       30.02R
CUSTER         MOCLDY    53  52  96 S3        30.23R
ELLSWORTH AFB  MOCLDY    62  57  84 N12       30.11S
PHILIP           N/A     65  61  87 NW3       30.07R
PINE RIDGE     MOCLDY    62  60  93 NW7       30.11F
WINNER         FAIR      70  67  90 W7        30.00F
$$

SDZ004>011-016>023-039-040-121100-
NORTHEAST SOUTH DAKOTA

CITY           SKY/WX    TMP DP  RH WIND       PRES   REMARKS
ABERDEEN       CLOUDY    65  57  75 NE6       30.02F
WATERTOWN      CLOUDY    69  55  60 NE12      30.02F
SISSETON         N/A     65  61  87 N6        30.02F
$$

SDZ017-020-022-023-036>040-048>070-121100-
SOUTHEAST SOUTH DAKOTA

CITY           SKY/WX    TMP DP  RH WIND       PRES   REMARKS
SIOUX FALLS    LGT RAIN  72  69  90 S15       29.98F
HURON          TSTM      74  72  93 NE7       29.95F FOG
CHAMBERLAIN    CLOUDY    70  67  88 N5        29.99R
MITCHELL       CLOUDY    75  72  90 S6        29.97F
YANKTON        CLOUDY    70  68  94 S13       30.04R
$$

ABBREVIATIONS USED IN REMARKS
   TC - TEMPERATURE IN CELSIUS
  WCI - WIND CHILL INDEX
   HX - HEAT INDEX
  VSB - VISIBILITY



USA.gov is the U.S. government's official web portal to all federal, state and local government web resources and services.